GTYEY EDLN-EDDG

Flight info

Callsign GTYEY
Flight time N/A
Altitude 5000
Route ABODU2N ABODU L179 MEVEL MEVEL1A
Aircraft C172/L-SFG/C

Departure

Time 2026-05-05 13:34
Airport Mönchengladbach Airport (EDLN)

Arrival

Time N/A
Airport Münster Osnabrück Airport (EDDG)
Time Latitude Longitude Altitude Speed Heading
2026-05-05 13:33 51.46957 6.44454 4864 ft 100 kts 14°
2026-05-05 13:34 51.47619 6.44767 4902 ft 98 kts 16°
2026-05-05 13:34 51.48279 6.45087 4902 ft 99 kts 16°
2026-05-05 13:34 51.48945 6.45414 4910 ft 100 kts 20°
2026-05-05 13:34 51.49609 6.45737 4901 ft 100 kts 16°
2026-05-05 13:35 51.50265 6.46056 4912 ft 97 kts 17°
2026-05-05 13:35 51.50905 6.46413 4884 ft 97 kts 32°
2026-05-05 13:35 51.51374 6.47173 4907 ft 93 kts 49°
2026-05-05 13:35 51.51775 6.48020 4916 ft 94 kts 51°
2026-05-05 13:36 51.52185 6.48870 4878 ft 97 kts 51°
2026-05-05 13:36 51.52583 6.49719 4877 ft 95 kts 51°
2026-05-05 13:36 51.52982 6.50569 4910 ft 96 kts 53°
2026-05-05 13:36 51.53386 6.51435 4879 ft 96 kts 52°
2026-05-05 13:37 51.53789 6.52304 4900 ft 96 kts 51°
2026-05-05 13:37 51.54192 6.53172 4905 ft 98 kts 51°
2026-05-05 13:37 51.54607 6.54070 4910 ft 99 kts 50°
2026-05-05 13:37 51.55020 6.54958 4898 ft 98 kts 52°
2026-05-05 13:38 51.55426 6.55831 4899 ft 98 kts 50°
2026-05-05 13:38 51.55838 6.56719 4923 ft 98 kts 50°
2026-05-05 13:38 51.56255 6.57610 4898 ft 101 kts 51°
2026-05-05 13:38 51.56671 6.58514 4901 ft 99 kts 51°
2026-05-05 13:39 51.57084 6.59400 4878 ft 99 kts 50°
2026-05-05 13:39 51.57492 6.60272 4893 ft 97 kts 50°
2026-05-05 13:39 51.57896 6.61150 4895 ft 98 kts 51°
2026-05-05 13:39 51.58309 6.62045 4893 ft 99 kts 51°
2026-05-05 13:40 51.58721 6.62939 4891 ft 99 kts 51°
2026-05-05 13:40 51.59134 6.63830 4893 ft 99 kts 51°
2026-05-05 13:40 51.59544 6.64718 4893 ft 98 kts 51°
2026-05-05 13:40 51.59951 6.65600 4893 ft 98 kts 51°
2026-05-05 13:41 51.60358 6.66479 4894 ft 98 kts 51°
2026-05-05 13:41 51.60767 6.67363 4899 ft 97 kts 51°
2026-05-05 13:41 51.61174 6.68246 4899 ft 97 kts 51°
2026-05-05 13:41 51.61577 6.69116 4897 ft 97 kts 51°
2026-05-05 13:42 51.61985 6.69999 4899 ft 98 kts 51°
2026-05-05 13:42 51.62393 6.70881 4897 ft 100 kts 51°
2026-05-05 13:42 51.62814 6.71792 4896 ft 101 kts 51°
2026-05-05 13:42 51.63231 6.72699 4895 ft 102 kts 51°
2026-05-05 13:43 51.63655 6.73618 4895 ft 102 kts 51°
2026-05-05 13:43 51.64082 6.74546 4898 ft 102 kts 51°
2026-05-05 13:43 51.64507 6.75470 4896 ft 102 kts 51°
2026-05-05 13:43 51.64929 6.76386 4894 ft 102 kts 51°
2026-05-05 13:44 51.65354 6.77309 4894 ft 102 kts 51°
2026-05-05 13:44 51.65783 6.78242 4891 ft 103 kts 51°
2026-05-05 13:44 51.65998 6.78709 4890 ft 103 kts 51°